YN1GRE-1 Weather Reports


Display with metric or nautical units.
time (UTC)temp
F
wind
direction
speed
MPH
gust
MPH
rain 1hr
in
rain 24hr
in
rain mn
in
humidity
%
barometer
mb
20260502223052 93 70 9.0 0.0 0.00 0.00 0.00 52 1008.0
20260502222052 93 90 5.0 0.0 0.00 0.00 0.00 52 1007.0
20260502221051 93 90 5.0 0.0 0.00 0.00 0.00 52 1007.0
20260502220050 93 90 6.0 0.0 0.00 0.00 0.00 52 1007.0
20260502215050 93 90 6.0 0.0 0.00 0.00 0.00 52 1007.0
20260502214050 93 90 6.0 0.0 0.00 0.00 0.00 52 1007.0
20260502213050 93 90 6.0 0.0 0.00 0.00 0.00 52 1007.0
20260502212049 95 160 7.0 8.0 0.00 0.00 0.00 49 1007.0
20260502211049 94 160 7.0 8.0 0.00 0.00 0.00 50 1007.0
20260502210048 98 90 4.0 0.0 0.00 0.00 0.00 39 1008.0
20260502205048 98 90 4.0 0.0 0.00 0.00 0.00 39 1008.0
20260502204048 98 90 4.0 0.0 0.00 0.00 0.00 39 1008.0
20260502203047 96 90 5.0 0.0 0.00 0.00 0.00 46 1008.0
20260502202047 96 90 5.0 0.0 0.00 0.00 0.00 46 1007.0
20260502201047 96 90 5.0 0.0 0.00 0.00 0.00 46 1008.0
20260502200047 96 90 5.0 0.0 0.00 0.00 0.00 46 1008.0
20260502195046 96 90 5.0 0.0 0.00 0.00 0.00 46 1008.0
20260502194046 96 90 5.0 0.0 0.00 0.00 0.00 46 1008.0
20260502193046 96 90 5.0 0.0 0.00 0.00 0.00 46 1008.0
20260502192045 96 90 5.0 0.0 0.00 0.00 0.00 46 1009.0
20260502191045 96 90 5.0 0.0 0.00 0.00 0.00 46 1009.0
20260502190044 96 90 6.0 0.0 0.00 0.00 0.00 46 1009.0
20260502185044 96 90 6.0 0.0 0.00 0.00 0.00 46 1009.0
20260502184044 96 90 6.0 0.0 0.00 0.00 0.00 46 1009.0
20260502183043 89 62 10.0 11.0 0.00 0.00 0.00 62 1009.0
20260502182043 89 62 10.0 11.0 0.00 0.00 0.00 62 1010.0
20260502181043 89 62 10.0 11.0 0.00 0.00 0.00 62 1010.0
20260502164040 89 0 0.0 0.0 0.00 0.00 0.00 62 1011.0
20260502163039 85 90 5.0 0.0 0.00 0.00 0.00 66 1011.0
20260502162039 85 90 5.0 0.0 0.00 0.00 0.00 66 1012.0
20260502161039 85 90 5.0 0.0 0.00 0.00 0.00 66 1012.0
20260502152037 83 67 7.0 9.0 0.00 0.00 0.00 82 1012.0
20260502151037 83 67 7.0 9.0 0.00 0.00 0.00 82 1012.0
20260502123032 77 28 3.0 5.0 0.00 0.00 0.00 81 1012.0
20260502122031 77 28 3.0 5.0 0.00 0.00 0.00 81 1011.0
20260502121031 77 28 3.0 5.0 0.00 0.00 0.00 81 1011.0
20260502115030 77 28 3.0 5.0 0.00 0.00 0.00 81 1011.0
20260502114030 77 28 3.0 5.0 0.00 0.00 0.00 81 1011.0
20260502113030 77 28 3.0 5.0 0.00 0.00 0.00 81 1011.0
20260502112029 77 28 3.0 5.0 0.00 0.00 0.00 81 1011.0
20260502111029 77 28 3.0 5.0 0.00 0.00 0.00 81 1011.0
20260502110029 77 28 3.0 5.0 0.00 0.00 0.00 81 1011.0
20260502105029 77 28 3.0 5.0 0.00 0.00 0.00 81 1011.0
20260502104028 77 28 3.0 5.0 0.00 0.00 0.00 81 1011.0
20260502103028 77 28 3.0 5.0 0.00 0.00 0.00 81 1011.0
20260502102028 77 28 3.0 5.0 0.00 0.00 0.00 81 1010.0
20260502101027 77 28 3.0 5.0 0.00 0.00 0.00 81 1010.0
20260502091026 77 28 3.0 5.0 0.00 0.00 0.00 81 1010.0
20260502071022 83 76 11.0 23.0 0.00 0.00 0.00 62 1010.0
20260502070022 83 76 11.0 23.0 0.00 0.00 0.00 62 1010.0
20260502065022 83 76 11.0 23.0 0.00 0.00 0.00 62 1010.0
20260502064022 83 76 11.0 23.0 0.00 0.00 0.00 62 1010.0
20260502063022 83 76 11.0 23.0 0.00 0.00 0.00 62 1010.0
20260502062022 83 76 11.0 23.0 0.00 0.00 0.00 62 1010.0
20260502061021 83 76 11.0 23.0 0.00 0.00 0.00 62 1010.0
20260502060021 83 76 11.0 23.0 0.00 0.00 0.00 62 1010.0
20260502055021 83 76 11.0 23.0 0.00 0.00 0.00 62 1010.0
20260502054020 83 76 11.0 23.0 0.00 0.00 0.00 62 1010.0
20260502053020 83 76 11.0 23.0 0.00 0.00 0.00 62 1010.0
20260502052020 83 76 11.0 23.0 0.00 0.00 0.00 62 1011.0
20260502051019 83 76 11.0 23.0 0.00 0.00 0.00 62 1011.0
20260502050019 83 76 11.0 23.0 0.00 0.00 0.00 62 1011.0
20260502045019 83 76 11.0 23.0 0.00 0.00 0.00 62 1011.0
20260502044018 83 76 11.0 23.0 0.00 0.00 0.00 62 1011.0
20260502043018 83 76 11.0 23.0 0.00 0.00 0.00 62 1011.0
20260502042018 83 76 11.0 23.0 0.00 0.00 0.00 62 1011.0
20260502041018 83 76 11.0 23.0 0.00 0.00 0.00 62 1011.0
20260502040018 83 76 11.0 23.0 0.00 0.00 0.00 62 1011.0
20260502035017 83 76 11.0 23.0 0.00 0.00 0.00 62 1011.0
20260502034017 83 76 11.0 23.0 0.00 0.00 0.00 62 1011.0
20260502033017 83 76 11.0 23.0 0.00 0.00 0.00 62 1011.0
20260502032016 83 76 11.0 23.0 0.00 0.00 0.00 62 1010.0
20260502031016 83 76 11.0 23.0 0.00 0.00 0.00 62 1010.0
20260502030016 83 76 11.0 23.0 0.00 0.00 0.00 62 1010.0
20260502025015 83 76 11.0 23.0 0.00 0.00 0.00 62 1010.0
20260502024015 83 76 11.0 23.0 0.00 0.00 0.00 62 1010.0
20260502023015 83 76 11.0 23.0 0.00 0.00 0.00 62 1009.0
20260502022014 83 76 11.0 23.0 0.00 0.00 0.00 62 1009.0
20260502021014 83 76 11.0 23.0 0.00 0.00 0.00 62 1009.0
20260502020014 83 76 11.0 23.0 0.00 0.00 0.00 62 1009.0
20260502015013 83 76 11.0 23.0 0.00 0.00 0.00 62 1009.0
20260502014013 83 76 12.0 23.0 0.00 0.00 0.00 62 1009.0
20260502013013 90 62 13.0 15.0 0.00 0.00 0.00 44 1009.0
20260502012012 90 62 13.0 15.0 0.00 0.00 0.00 44 1008.0
20260502011012 90 62 13.0 15.0 0.00 0.00 0.00 44 1008.0
20260502010012 90 62 13.0 15.0 0.00 0.00 0.00 44 1008.0
20260502005011 90 62 13.0 15.0 0.00 0.00 0.00 44 1008.0
20260502004011 90 62 13.0 15.0 0.00 0.00 0.00 44 1008.0
20260502003011 90 62 13.0 15.0 0.00 0.00 0.00 44 1007.0
20260502002010 90 62 13.0 15.0 0.00 0.00 0.00 44 1007.0
20260502001010 90 62 13.0 15.0 0.00 0.00 0.00 44 1007.0
20260502000010 90 62 13.0 15.0 0.00 0.00 0.00 44 1007.0
20260501235010 90 62 13.0 15.0 0.00 0.00 0.00 44 1007.0
20260501234009 90 62 13.0 15.0 0.00 0.00 0.00 44 1007.0
20260501233009 90 62 13.0 15.0 0.00 0.00 0.00 44 1006.0
20260501232009 90 62 13.0 15.0 0.00 0.00 0.00 44 1006.0
20260501231009 90 62 13.0 15.0 0.00 0.00 0.00 44 1006.0
20260501230009 90 62 13.0 15.0 0.00 0.00 0.00 44 1006.0
20260501225008 90 62 13.0 15.0 0.00 0.00 0.00 44 1006.0
20260501224008 90 62 13.0 15.0 0.00 0.00 0.00 44 1006.0